Helicity
148 148 59 67 31 66 57 59 41 -10 -71 27 44 57 194 151 107 96 101 57 61 26 56 61 41 16 10 8 12 -9 12 -23 7 3 4 -7 -2 -2 7 18 -3 10 17 9
181 87 60 38 46 66 57 67 48 24 14 3 -37 41 87 179 103 94 74 51 76 4 49 63 65 40 27 37 50 12 28 15 2 -15 16 20 -7 -11 -0 8 10 -4 7 17
107 71 65 65 62 75 69 81 37 36 29 25 19 -56 -169 86 90 71 1 47 107 104 72 73 90 64 22 51 62 37 53 21 -8 -17 16 92 71 30 9 14 13 1 -4 3
38 16 64 100 94 86 84 56 85 56 63 4 2 -32 -101 34 -13 -14 -33 43 94 105 87 117 110 71 45 36 47 28 50 20 -16 2 5 27 11 6 7 9 19 10 5 -6
47 81 110 111 78 109 71 143 119 79 76 45 11 45 40 110 66 136 -57 42 32 93 118 92 115 116 14 24 66 31 41 34 -7 -3 6 24 3 17 31 17 15 16 10 -0
31 27 81 68 83 78 123 178 174 98 59 46 -38 -26 21 60 -126 20 39 37 56 65 88 93 90 75 -1 8 50 40 32 -3 -25 -19 -1 25 30 12 12 17 17 20 15 15
20 56 75 91 151 180 150 234 124 74 72 32 8 -11 44 28 -40 76 -29 111 51 85 63 82 114 59 -16 41 57 54 45 9 -2 -6 -15 -9 1 11 13 15 3 9 11 19
10 37 74 59 57 64 150 142 71 53 60 59 37 -24 6 -6 85 42 139 180 134 128 147 117 129 97 40 17 74 68 62 23 8 16 8 -3 -4 -11 -18 -14 -4 -0 9 4
20 50 49 65 48 79 80 73 39 37 60 41 7 -7 -12 80 134 166 279 303 157 152 193 110 118 67 73 68 44 91 88 26 23 -4 -3 16 36 28 -22 -3 23 25 39 34
-8 40 46 55 79 83 43 72 91 78 37 32 65 11 -28 -30 -14 90 158 271 247 179 158 159 80 43 85 72 55 72 83 92 52 38 31 25 18 33 37 36 25 30 38 31
15 32 57 49 42 52 112 106 78 20 28 36 73 26 -21 -47 39 -62 -55 74 69 120 256 205 75 61 67 81 90 80 91 91 71 50 67 67 49 41 39 39 44 48 40 38
26 3 23 35 78 52 64 72 82 39 35 32 33 60 22 -10 -4 89 -36 13 19 149 206 246 113 96 142 94 72 84 100 87 106 86 69 68 82 70 62 59 71 61 43 42
42 36 21 81 111 55 138 140 110 77 75 38 45 75 -24 1 -2 84 118 131 112 139 180 269 123 165 114 56 98 122 134 135 146 135 117 95 93 103 91 87 84 65 66 44
56 80 52 68 114 123 119 188 138 76 73 57 9 27 20 19 27 9 76 105 96 121 194 267 264 210 178 129 127 149 150 183 174 180 165 125 127 120 116 94 63 74 51 54
85 62 71 45 101 149 59 219 209 97 44 51 97 11 -6 18 45 39 41 83 111 107 152 187 206 194 147 111 127 193 201 186 156 145 171 194 176 123 105 65 17 49 39 38
82 53 94 109 74 85 88 140 210 136 83 63 99 51 15 33 83 120 89 67 42 20 -20 -25 50 103 101 105 181 218 156 149 107 129 227 235 160 81 55 77 71 6 47 47
92 47 71 44 143 92 73 106 83 97 86 69 73 85 62 97 147 140 89 56 77 86 29 -28 -79 30 125 108 122 111 112 131 107 124 134 139 124 108 36 19 21 20 81 76
89 44 36 35 91 79 59 62 5 56 34 31 39 65 88 132 203 226 170 134 130 119 101 107 7 10 64 78 154 150 123 133 146 132 126 105 132 139 41 -1 52 60 83 76
66 64 22 23 84 97 76 50 23 24 70 -33 -6 30 62 167 264 283 201 177 153 141 131 105 85 110 160 214 208 154 107 99 119 90 95 117 66 39 44 67 91 123 103 83
81 72 44 40 1 27 46 61 108 23 69 -24 -56 -27 13 108 162 125 124 98 79 83 103 165 154 147 166 159 171 219 130 112 92 131 135 80 4 19 105 129 135 110 98 93
57 59 51 66 51 51 45 74 95 153 19 -22 -66 -27 25 53 14 -16 18 63 57 53 68 78 131 133 144 141 150 248 289 232 151 134 147 99 72 141 171 134 102 86 111 108
17 25 22 31 43 59 50 71 61 64 46 -5 -16 -11 38 101 90 74 69 46 42 39 66 52 48 71 110 120 126 168 234 185 160 173 142 172 65 195 135 105 103 64 114 151
-5 20 27 33 -0 8 40 27 39 16 29 11 38 45 38 90 71 58 30 1 31 58 14 17 27 41 69 84 95 141 161 141 132 164 186 173 222 99 130 96 128 139 126 130
2 27 37 11 7 20 45 49 43 47 38 15 14 30 66 91 111 23 -11 -17 6 -22 -23 -25 -12 34 53 70 76 64 76 104 129 149 133 132 140 140 132 175 137 126 168 134
7 18 15 34 23 27 2 13 14 16 26 22 30 5 11 39 25 -14 -21 -28 -82 -47 27 58 42 43 27 20 36 36 54 69 90 96 95 95 103 116 121 129 126 151 154 148
25 44 35 46 26 -4 -54 -57 -19 -4 28 45 53 28 33 11 -2 -9 -11 -39 -43 -59 -42 5 32 45 35 51 63 50 41 50 52 71 79 76 79 81 80 77 96 122 109 103
Wind_Speed
14 18 23 30 27 27 33 36 33 31 30 35 43 51 53 43 52 48 26 27 40 58 59 44 51 54 56 55 56 60 57 59 60 58 57 54 51 47 45 41 44 45 44 41
21 27 27 26 25 31 31 32 39 36 33 36 33 49 54 52 52 58 58 23 34 53 44 40 50 60 56 56 57 59 54 54 55 55 56 53 53 48 45 43 43 44 44 41
21 22 24 29 31 33 34 39 35 40 31 37 36 50 47 59 62 66 69 67 25 38 49 52 43 64 63 58 58 60 55 53 55 52 33 30 37 40 46 45 44 43 42 43
24 27 30 31 35 31 44 37 35 36 35 51 39 54 54 76 77 78 81 72 33 30 41 48 55 60 65 64 57 63 58 53 54 52 45 38 44 48 48 48 46 44 42 45
22 32 35 37 37 22 38 25 37 38 43 45 48 48 47 49 85 86 95 76 32 31 43 58 63 63 66 66 58 63 63 56 55 50 46 40 39 52 45 47 47 45 45 44
32 32 36 34 32 16 8 23 30 36 44 56 46 46 47 41 79 90 91 83 42 33 41 51 48 60 69 60 53 59 60 62 61 48 45 43 44 41 45 43 49 48 47 46
28 25 30 23 21 21 22 29 52 54 54 55 40 46 58 27 53 79 55 56 52 32 34 33 28 38 79 49 49 52 55 57 62 56 44 47 47 41 41 37 38 50 50 51
27 25 17 26 27 24 21 31 49 58 53 52 43 53 46 41 26 54 45 42 50 34 35 35 37 32 42 61 37 44 47 53 52 52 59 61 58 46 49 50 52 51 52 53
24 28 29 30 24 10 29 33 34 44 43 47 46 50 52 33 16 27 38 44 50 37 40 37 34 30 29 28 35 40 45 46 36 42 28 10 36 14 38 52 44 49 40 33
23 36 31 34 27 31 33 24 40 45 50 54 48 49 50 26 21 4 22 34 50 46 40 38 39 36 36 37 29 19 24 45 35 21 9 5 10 30 30 30 40 42 34 22
27 30 39 38 34 34 36 41 42 40 45 47 51 43 38 31 10 15 29 38 38 45 40 37 48 41 36 39 40 28 24 17 14 14 13 15 20 29 33 37 41 36 33 30
33 28 40 37 45 44 48 47 47 58 52 48 46 47 39 35 25 27 28 45 58 50 52 39 42 36 41 42 50 42 36 29 22 18 16 15 21 21 28 34 41 41 40 37
30 32 36 37 36 34 38 45 49 51 50 57 51 48 41 31 30 26 17 27 31 27 46 46 50 41 43 49 49 52 46 35 28 23 21 22 22 23 28 35 42 48 50 47
35 34 37 41 45 39 46 44 46 53 56 56 56 55 43 37 42 37 23 23 14 8 35 44 40 41 41 42 47 49 48 33 30 28 22 24 26 29 32 41 54 53 53 53
34 40 45 43 40 34 42 42 44 51 47 54 58 55 48 42 35 43 13 20 20 9 7 26 36 41 44 45 42 39 42 41 37 39 25 29 26 28 39 48 56 63 56 52
35 47 51 54 48 55 47 39 47 44 46 46 51 47 41 36 27 21 21 11 14 25 48 48 33 34 50 46 43 41 46 38 38 41 34 30 33 35 49 46 54 57 65 62
34 39 50 63 57 57 70 52 37 40 42 46 49 47 38 28 22 20 15 12 12 11 6 5 2 7 44 25 34 39 46 47 44 35 31 33 40 30 37 35 56 60 44 40
30 36 43 55 53 67 55 53 39 44 45 45 44 40 28 14 14 16 19 17 19 18 18 22 19 13 12 2 29 25 40 42 39 37 33 44 40 43 39 28 42 40 33 30
31 33 43 49 55 53 47 54 49 43 53 45 44 35 22 9 12 20 21 20 18 20 23 25 24 21 22 26 14 6 25 37 45 45 46 43 36 32 25 37 39 28 28 25
32 34 40 44 46 56 52 43 36 35 54 43 43 36 27 37 26 19 18 21 22 23 25 27 27 27 31 35 35 26 17 17 30 34 42 37 39 29 34 32 34 36 21 19
21 32 35 36 44 48 38 36 32 47 45 40 42 36 35 35 23 9 15 21 25 25 25 25 25 28 30 31 25 23 16 21 32 32 32 38 36 34 18 26 27 22 19 20
29 28 34 37 41 43 36 31 42 42 33 34 33 30 27 10 9 14 20 23 24 26 27 26 25 25 27 26 21 20 21 26 30 27 18 31 32 37 21 23 24 22 15 16
26 23 28 18 36 39 41 40 38 24 27 30 27 20 14 10 14 18 21 24 26 25 26 26 24 24 25 25 23 20 21 21 22 22 19 22 9 32 26 24 25 21 17 14
22 22 27 27 32 30 27 27 21 21 23 18 12 10 14 17 17 18 21 25 25 25 23 25 20 23 23 24 24 23 22 21 22 22 21 20 19 22 23 25 25 23 22 23
29 32 28 31 27 28 19 18 19 19 16 15 8 15 15 11 12 15 20 27 25 28 28 25 26 25 22 22 23 24 24 24 25 24 24 25 25 25 25 28 31 30 33 34
34 30 29 27 33 16 34 9 22 20 19 12 10 10 11 13 10 14 19 23 26 29 29 28 29 28 26 23 24 24 25 26 26 27 27 28 28 26 25 26 28 31 32 34
Wind_Direction
335 304 290 300 309 308 308 301 304 305 306 311 287 263 246 254 240 236 235 164 159 167 167 150 155 161 164 161 161 167 162 156 155 175 172 170 167 169 171 179 175 169 172 182
319 298 298 307 313 303 300 297 292 296 304 306 310 258 242 252 242 234 236 190 168 164 156 152 156 166 164 161 158 161 147 144 145 147 173 183 171 175 180 179 177 179 171 180
309 321 313 299 300 296 291 284 282 290 295 300 301 271 265 240 240 233 234 237 198 165 164 161 155 170 176 165 163 162 151 151 153 151 128 239 224 217 189 187 188 187 183 182
315 309 308 298 294 295 281 274 278 283 286 281 287 263 256 230 242 240 231 234 220 184 169 163 162 168 176 177 165 172 160 154 155 152 143 134 147 157 189 193 200 198 203 194
313 302 299 295 289 289 285 281 276 280 280 284 278 280 279 254 237 230 218 230 214 201 171 169 170 171 176 178 167 173 173 164 163 154 151 141 143 198 225 210 206 207 213 218
306 307 300 294 295 282 308 286 279 282 280 272 276 275 278 268 237 228 222 224 229 196 179 174 174 226 180 188 162 169 169 173 172 159 155 151 155 150 178 198 200 210 217 220
330 317 296 290 297 290 284 269 259 265 267 265 281 279 275 280 249 224 193 236 233 201 189 204 205 168 199 163 163 164 166 170 178 171 160 164 169 161 162 156 169 215 225 228
337 317 290 282 286 287 272 264 255 257 262 264 281 272 286 291 270 246 223 228 232 214 209 200 185 180 171 173 161 162 165 169 168 169 181 196 204 181 193 199 221 224 222 222
346 313 289 286 288 293 275 265 269 274 275 267 275 288 296 304 293 272 235 218 226 221 222 207 214 211 217 181 168 165 166 169 165 168 157 173 267 298 181 216 264 252 279 291
353 298 290 292 289 279 281 273 262 266 261 258 270 281 283 293 310 288 223 201 226 230 227 215 214 218 230 235 180 214 174 170 167 168 193 234 276 283 287 286 279 275 287 310
340 310 280 286 287 281 268 262 264 272 264 260 264 280 303 286 79 95 136 160 192 223 223 209 187 220 207 235 241 234 238 198 224 246 260 272 282 285 284 284 280 287 293 299
312 315 283 280 279 273 265 260 259 253 258 263 269 273 285 277 272 136 262 248 244 245 234 221 222 216 226 233 242 245 248 247 246 253 266 273 280 288 287 288 285 284 285 290
304 301 293 276 273 284 269 265 261 259 265 256 257 260 296 260 267 275 282 283 271 253 232 230 230 222 234 241 244 248 250 251 251 253 265 275 277 282 284 283 284 278 278 281
292 281 275 272 266 270 267 267 265 254 255 254 252 259 284 268 235 244 275 109 295 285 237 228 225 223 233 241 247 249 253 252 252 251 254 265 273 277 281 286 277 278 275 276
294 278 266 266 266 261 269 270 270 256 261 256 252 261 282 295 291 249 301 84 99 88 245 211 226 229 245 241 249 251 256 259 262 258 250 258 270 280 281 280 276 259 265 272
307 276 264 257 263 258 269 284 264 269 265 262 262 268 291 302 304 314 296 15 79 117 152 226 240 235 245 249 252 257 255 259 269 275 265 261 269 279 286 280 272 258 256 265
314 295 263 250 262 260 255 261 278 270 273 266 262 266 284 304 310 309 325 346 338 318 317 45 71 236 248 246 255 256 261 267 271 272 269 269 271 277 284 281 262 263 278 282
334 289 266 255 256 249 263 254 271 273 276 270 268 268 277 322 332 334 320 324 313 304 299 283 289 305 311 38 267 284 270 270 266 267 273 265 268 276 272 276 267 275 285 290
316 298 265 262 256 259 265 260 255 277 266 272 264 264 263 294 338 332 342 343 336 322 312 306 293 300 294 286 290 289 296 278 269 272 272 268 270 264 270 265 270 283 287 293
315 287 278 269 266 256 270 266 273 274 264 268 259 257 249 261 280 299 335 3 2 345 316 309 311 300 289 293 285 282 313 299 285 277 274 268 265 272 273 274 275 278 284 294
11 306 290 286 271 271 286 272 271 257 273 255 249 255 256 270 286 348 349 2 355 350 347 343 327 305 305 305 309 293 292 304 290 294 293 271 267 270 275 268 280 290 287 289
324 318 294 284 278 278 276 279 256 266 270 259 262 265 276 306 2 341 334 334 352 360 1 358 354 341 333 332 329 320 315 309 312 325 308 286 268 269 274 286 298 303 309 314
338 9 17 95 290 290 267 268 275 286 279 273 276 282 307 356 344 336 341 348 355 359 354 2 353 351 346 356 354 350 334 341 339 343 334 303 323 280 310 306 312 319 327 335
22 42 7 347 327 282 288 285 293 294 296 305 310 327 317 308 328 323 353 7 2 6 356 359 352 4 355 351 356 349 344 347 352 359 351 343 350 340 344 334 327 320 317 318
136 107 60 322 295 267 318 300 319 336 339 319 325 318 315 314 350 353 20 29 21 23 8 10 18 18 359 16 5 342 335 341 346 348 336 336 335 338 334 325 319 317 316 313
151 128 115 127 137 43 115 27 254 358 357 12 15 333 320 309 357 23 19 23 23 27 26 29 26 29 25 16 8 352 338 340 347 338 339 333 333 340 341 332 328 327 325 323